Location: Brantley
(31.5822°N, 86.2569°W)
Time: 13:16:31
(UTC+00:00)

Courier 1B - Pass Details

Date: 19 February 2026
Orbit: 962 x 1208 km, 28.3° (Epoch: 11 March)

Event Time Altitude Azimuth Distance (km) Brightness Sun altitude
Rises 00:08:23 0° 233° (SW) 3,799 11.8 -7.9°
Reaches altitude 10° 00:11:12 10° 226° (SW) 2,884 10.9 -8.5°
Maximum altitude 00:17:45 40° 159° (SSE) 1,570 8.5 -9.9°
Enters shadow 00:23:56 13° 95° (E) 2,820 9.3 -11.2°
Drops below altitude 10° 00:24:42 10° 92° (E) 3,057 - -11.4°
Sets 00:27:45 0° 86° (E) 4,049 - -12.0°
